YC0ACE-13 Weather Reports


time (UTC)temp
C
wind
direction
speed
KPH
gust
KPH
rain 1hr
cm
rain 24hr
cm
rain mn
cm
humidity
%
barometer
mb
20260509213025 27 215 1.6 1.6 0.00 0.00 0.00 83 1013.5
20260509212524 27 195 0.0 0.0 0.00 0.00 0.00 84 1013.5
20260509212024 27 192 0.0 0.0 0.00 0.00 0.00 84 1013.2
20260509211525 27 193 0.0 0.0 0.00 0.00 0.00 83 1013.2
20260509211024 27 212 0.0 0.0 0.00 0.00 0.00 83 1013.2
20260509210524 27 223 1.6 1.6 0.00 0.00 0.00 83 1013.2
20260509210024 27 204 0.0 0.0 0.00 0.00 0.00 83 1013.2
20260509205524 27 200 0.0 0.0 0.00 0.00 0.00 82 1013.2
20260509205025 27 201 1.6 1.6 0.00 0.00 0.00 82 1013.5
20260509204525 27 174 1.6 1.6 0.00 0.00 0.00 82 1013.2
20260509204025 27 188 3.2 3.2 0.00 0.00 0.00 82 1013.5
20260509203525 27 166 1.6 1.6 0.00 0.00 0.00 83 1013.5
20260509203024 27 181 0.0 0.0 0.00 0.00 0.00 83 1013.5
20260509202524 27 152 1.6 1.6 0.00 0.00 0.00 82 1013.9
20260509202024 27 169 0.0 1.6 0.00 0.00 0.00 82 1013.9
20260509201525 27 177 1.6 1.6 0.00 0.00 0.00 82 1013.9
20260509201028 27 151 0.0 1.6 0.00 0.00 0.00 82 1013.9
20260509200524 27 173 1.6 1.6 0.00 0.00 0.00 81 1013.5
20260509200025 27 165 1.6 3.2 0.00 0.00 0.00 81 1013.9
20260509195524 27 185 4.8 4.8 0.00 0.00 0.00 81 1013.9
20260509195030 27 209 4.8 4.8 0.00 0.00 0.00 80 1013.9
20260509194525 27 205 3.2 3.2 0.00 0.00 0.00 80 1013.5
20260509194024 27 190 3.2 3.2 0.00 0.00 0.00 80 1013.9
20260509193529 27 190 1.6 1.6 0.00 0.00 0.00 81 1013.9
20260509193024 27 199 0.0 1.6 0.00 0.00 0.00 81 1013.9
20260509192525 27 182 1.6 1.6 0.00 0.00 0.00 80 1013.9
20260509192025 27 168 1.6 1.6 0.00 0.00 0.00 80 1013.9
20260509191524 27 182 1.6 1.6 0.00 0.00 0.00 80 1013.9
20260509191025 27 192 3.2 3.2 0.00 0.00 0.00 80 1013.9
20260509190524 27 175 1.6 3.2 0.00 0.00 0.00 80 1014.2
20260509190025 27 171 1.6 1.6 0.00 0.00 0.00 79 1014.2
20260509185524 28 184 1.6 1.6 0.00 0.00 0.00 80 1014.2
20260509185025 27 179 1.6 1.6 0.00 0.00 0.00 80 1014.2
20260509184524 28 207 1.6 1.6 0.00 0.00 0.00 80 1014.2
20260509184025 28 216 6.4 8.0 0.00 0.00 0.00 79 1014.2
20260509183524 28 242 1.6 1.6 0.00 0.00 0.00 79 1014.6
20260509183024 28 206 4.8 4.8 0.00 0.00 0.00 79 1014.6
20260509182524 28 222 1.6 3.2 0.00 0.00 0.00 79 1014.6
20260509182025 28 199 4.8 8.0 0.00 0.00 0.00 79 1014.6
20260509181524 28 195 4.8 4.8 0.00 0.00 0.00 79 1014.9
20260509181024 28 185 3.2 3.2 0.00 0.00 0.00 78 1014.9
20260509180524 28 195 1.6 1.6 0.00 0.00 0.00 78 1015.2
20260509180025 28 206 1.6 1.6 0.00 0.00 0.00 78 1015.2
20260509175527 28 196 1.6 1.6 0.00 0.00 0.00 78 1015.2
20260509175024 28 200 3.2 3.2 0.00 0.00 0.00 78 1015.2
20260509174526 28 206 3.2 3.2 0.00 0.00 0.00 78 1015.2
20260509174024 28 215 3.2 3.2 0.00 0.00 0.00 78 1015.2
20260509173524 28 200 1.6 3.2 0.00 0.00 0.00 78 1015.2
20260509173024 28 226 3.2 3.2 0.00 0.00 0.00 78 1015.2
20260509172527 28 221 3.2 3.2 0.00 0.00 0.00 78 1015.6
20260509172025 28 219 1.6 3.2 0.00 0.00 0.00 78 1015.6
20260509171524 28 205 3.2 3.2 0.00 0.00 0.00 78 1015.6
20260509171025 28 153 3.2 3.2 0.00 0.00 0.00 78 1015.6
20260509170525 28 180 1.6 3.2 0.00 0.00 0.00 78 1015.9
20260509170025 28 206 1.6 3.2 0.00 0.00 0.00 78 1015.9
20260509165524 28 175 3.2 3.2 0.00 0.00 0.00 78 1015.6
20260509165024 28 191 4.8 4.8 0.00 0.00 0.00 78 1015.9
20260509164525 28 208 3.2 3.2 0.00 0.00 0.00 78 1015.6
20260509164024 28 203 4.8 4.8 0.00 0.00 0.00 78 1015.9
20260509163525 28 200 4.8 4.8 0.00 0.00 0.00 78 1015.9
20260509163025 28 218 1.6 3.2 0.00 0.00 0.00 79 1015.9
20260509162525 28 211 1.6 1.6 0.00 0.00 0.00 78 1015.9
20260509162025 28 238 1.6 1.6 0.00 0.00 0.00 78 1015.9
20260509161524 28 217 1.6 1.6 0.00 0.00 0.00 78 1015.9
20260509161025 28 232 3.2 3.2 0.00 0.00 0.00 78 1015.6
20260509160525 28 233 3.2 3.2 0.00 0.00 0.00 78 1015.6
20260509160025 28 230 1.6 1.6 0.00 0.00 0.00 77 1015.6
20260509155524 29 231 4.8 4.8 0.00 0.00 0.00 77 1015.6
20260509155024 29 202 3.2 3.2 0.00 0.00 0.00 76 1015.6
20260509154525 29 157 1.6 1.6 0.00 0.00 0.00 77 1015.6
20260509154024 29 185 0.0 0.0 0.00 0.00 0.00 77 1015.6
20260509153524 29 193 0.0 0.0 0.00 0.00 0.00 76 1015.6
20260509153024 29 184 0.0 0.0 0.00 0.00 0.00 76 1015.2
20260509152524 29 210 0.0 0.0 0.00 0.00 0.00 76 1015.6
20260509152026 29 196 0.0 1.6 0.00 0.00 0.00 76 1015.6
20260509151526 29 184 3.2 3.2 0.00 0.00 0.00 76 1015.6
20260509151025 29 207 1.6 1.6 0.00 0.00 0.00 76 1015.6
20260509150524 29 175 1.6 1.6 0.00 0.00 0.00 76 1015.6
20260509150025 28 185 0.0 0.0 0.00 0.00 0.00 76 1015.6
20260509145525 28 181 1.6 1.6 0.00 0.00 0.00 76 1015.6
20260509145025 29 176 1.6 1.6 0.00 0.00 0.00 76 1015.6
20260509144525 29 210 1.6 1.6 0.00 0.00 0.00 76 1015.6
20260509144025 29 195 3.2 3.2 0.00 0.00 0.00 76 1015.6
20260509143525 29 216 1.6 1.6 0.00 0.00 0.00 76 1015.6
20260509143024 29 172 0.0 0.0 0.00 0.00 0.00 76 1015.6
20260509142525 29 144 4.8 4.8 0.00 0.00 0.00 76 1015.6
20260509142025 29 242 4.8 4.8 0.00 0.00 0.00 76 1015.6
20260509141524 29 177 3.2 3.2 0.00 0.00 0.00 75 1015.6
20260509141025 29 196 3.2 3.2 0.00 0.00 0.00 75 1015.2
20260509140524 29 196 3.2 3.2 0.00 0.00 0.00 75 1015.6
20260509140025 29 165 1.6 1.6 0.00 0.00 0.00 75 1015.2
20260509135524 29 156 3.2 4.8 0.00 0.00 0.00 75 1015.2
20260509135025 29 161 3.2 3.2 0.00 0.00 0.00 75 1015.2
20260509134524 29 155 3.2 3.2 0.00 0.00 0.00 74 1015.2
20260509134025 29 217 1.6 3.2 0.00 0.00 0.00 75 1015.6
20260509133524 29 187 4.8 4.8 0.00 0.00 0.00 74 1015.2
20260509133024 29 188 3.2 3.2 0.00 0.00 0.00 74 1015.2
20260509132524 29 182 1.6 3.2 0.00 0.00 0.00 75 1015.2
20260509132025 29 148 3.2 4.8 0.00 0.00 0.00 75 1015.2
20260509131525 29 165 1.6 3.2 0.00 0.00 0.00 75 1015.2
20260509131024 29 132 4.8 4.8 0.00 0.00 0.00 75 1014.9
20260509130525 29 142 3.2 3.2 0.00 0.00 0.00 75 1014.9
20260509130025 29 143 3.2 3.2 0.00 0.00 0.00 75 1014.9
20260509125524 29 138 1.6 1.6 0.00 0.00 0.00 75 1014.9
20260509125024 29 160 1.6 3.2 0.00 0.00 0.00 75 1014.6
20260509124525 29 157 4.8 4.8 0.00 0.00 0.00 75 1014.6
20260509124024 29 164 3.2 3.2 0.00 0.00 0.00 75 1014.6
20260509123524 29 121 4.8 4.8 0.00 0.00 0.00 75 1014.6
20260509123024 29 151 1.6 1.6 0.00 0.00 0.00 75 1014.6
20260509122524 29 122 8.0 9.7 0.00 0.00 0.00 74 1014.6
20260509122024 29 151 4.8 4.8 0.00 0.00 0.00 75 1014.6
20260509121524 29 172 1.6 1.6 0.00 0.00 0.00 76 1014.6
20260509121025 29 178 1.6 1.6 0.00 0.00 0.00 78 1014.2
20260509120525 28 190 1.6 1.6 0.00 0.00 0.00 79 1014.2
20260509120024 28 192 0.0 0.0 0.00 0.00 0.00 79 1014.2
20260509115525 28 192 0.0 0.0 0.00 0.00 0.00 79 1014.2
20260509115025 28 193 1.6 1.6 0.00 0.00 0.00 79 1014.2
20260509114525 28 191 0.0 0.0 0.00 0.00 0.00 80 1013.9
20260509114025 28 191 0.0 0.0 0.00 0.00 0.00 80 1014.2
20260509113524 28 191 0.0 0.0 0.00 0.00 0.00 80 1013.9
20260509113025 28 188 1.6 1.6 0.00 0.00 0.00 80 1013.9
20260509112524 28 189 1.6 1.6 0.00 0.00 0.00 81 1013.9
20260509112026 28 205 0.0 0.0 0.00 0.00 0.00 81 1013.9
20260509111524 28 277 0.0 0.0 0.00 0.00 0.00 80 1013.9
20260509111024 28 188 0.0 0.0 0.00 0.00 0.00 80 1013.9
20260509110524 27 320 0.0 0.0 0.00 0.00 0.00 81 1013.9
20260509110025 27 257 0.0 1.6 0.00 0.00 0.00 82 1013.5
20260509105524 27 209 1.6 1.6 0.00 0.00 0.00 85 1013.9
20260509105025 27 248 1.6 1.6 0.00 0.00 0.00 85 1013.5
20260509104524 27 205 0.0 0.0 0.00 0.00 0.00 85 1013.2
20260509104024 27 352 3.2 4.8 0.00 0.00 0.00 84 1013.5
20260509103525 28 342 4.8 8.0 0.00 0.00 0.00 82 1013.2
20260509103024 28 9 6.4 8.0 0.00 0.00 0.00 77 1013.9
20260509102525 29 8 11.3 14.5 0.00 0.00 0.00 76 1013.5
20260509102024 30 6 3.2 3.2 0.00 0.00 0.00 72 1013.5
20260509101525 30 197 0.0 1.6 0.00 0.00 0.00 73 1013.2
20260509101026 30 100 8.0 9.7 0.00 0.00 0.00 74 1013.2
20260509100524 30 7 8.0 11.3 0.00 0.00 0.00 74 1013.2
20260509100024 30 16 4.8 8.0 0.00 0.00 0.00 74 1012.9
20260509095525 30 88 4.8 8.0 0.00 0.00 0.00 74 1012.9
20260509095025 30 53 3.2 4.8 0.00 0.00 0.00 73 1012.9
20260509094524 30 280 4.8 4.8 0.00 0.00 0.00 74 1012.9
20260509094024 30 347 3.2 3.2 0.00 0.00 0.00 74 1012.9
20260509093524 30 286 12.9 16.1 0.00 0.00 0.00 74 1012.9
20260509093024 30 35 9.7 11.3 0.00 0.00 0.00 73 1012.9
20260509092524 30 81 11.3 14.5 0.00 0.00 0.00 73 1012.9
20260509092024 30 278 3.2 8.0 0.00 0.00 0.00 73 1012.9
20260509091524 30 359 1.6 3.2 0.00 0.00 0.00 73 1012.5
20260509091024 30 2 8.0 9.7 0.00 0.00 0.00 72 1012.5
20260509090525 31 4 4.8 8.0 0.00 0.00 0.00 71 1012.5
20260509090025 31 112 9.7 12.9 0.00 0.00 0.00 71 1012.5
20260509085525 31 16 4.8 8.0 0.00 0.00 0.00 70 1012.5
20260509085025 31 321 3.2 3.2 0.00 0.00 0.00 70 1012.2
20260509084524 31 13 3.2 3.2 0.00 0.00 0.00 68 1012.5
20260509084024 31 46 9.7 11.3 0.00 0.00 0.00 67 1012.2
20260509083524 31 229 3.2 4.8 0.00 0.00 0.00 66 1012.2
20260509083024 32 276 6.4 8.0 0.00 0.00 0.00 64 1011.9
20260509082525 32 1 3.2 3.2 0.00 0.00 0.00 63 1012.2
20260509082024 32 65 8.0 11.3 0.00 0.00 0.00 63 1012.2
20260509081525 32 336 4.8 4.8 0.00 0.00 0.00 62 1012.2
20260509081024 32 8 8.0 9.7 0.00 0.00 0.00 61 1012.2
20260509080524 32 356 9.7 12.9 0.00 0.00 0.00 60 1012.2
20260509080025 32 83 8.0 9.7 0.00 0.00 0.00 60 1012.2
20260509075524 32 33 6.4 9.7 0.00 0.00 0.00 60 1012.2
20260509075024 33 19 8.0 9.7 0.00 0.00 0.00 59 1012.2
20260509074524 33 7 4.8 8.0 0.00 0.00 0.00 59 1012.2
20260509074024 33 14 11.3 12.9 0.00 0.00 0.00 58 1012.2
20260509073524 33 272 1.6 1.6 0.00 0.00 0.00 59 1012.2
20260509073024 33 357 1.6 1.6 0.00 0.00 0.00 59 1012.5
20260509072524 32 5 11.3 14.5 0.00 0.00 0.00 59 1012.2
20260509072025 33 335 8.0 9.7 0.00 0.00 0.00 59 1012.5
20260509071524 32 203 1.6 3.2 0.00 0.00 0.00 61 1012.5
20260509071025 32 68 4.8 8.0 0.00 0.00 0.00 62 1012.5
20260509070524 32 344 16.1 17.7 0.00 0.00 0.00 62 1012.9
20260509070025 32 35 11.3 16.1 0.00 0.00 0.00 64 1012.5
20260509065525 32 332 6.4 11.3 0.00 0.00 0.00 65 1012.5
20260509065024 31 79 6.4 12.9 0.00 0.00 0.00 64 1012.9
20260509064525 31 4 16.1 20.9 0.00 0.00 0.00 64 1012.9
20260509064024 31 281 4.8 8.0 0.00 0.00 0.00 68 1012.9
20260509063525 31 342 4.8 8.0 0.00 0.00 0.00 70 1012.9
20260509063025 31 10 14.5 16.1 0.00 0.00 0.00 69 1012.9
20260509062524 31 357 11.3 12.9 0.00 0.00 0.00 69 1013.2
20260509062024 31 61 8.0 9.7 0.00 0.00 0.00 69 1013.2
20260509061524 31 79 6.4 9.7 0.00 0.00 0.00 68 1013.2
20260509061024 32 9 4.8 8.0 0.00 0.00 0.00 68 1013.2
20260509060525 31 1 12.9 14.5 0.00 0.00 0.00 68 1013.2
20260509060025 32 8 17.7 22.5 0.00 0.00 0.00 65 1013.2
20260509055524 32 18 3.2 4.8 0.00 0.00 0.00 65 1013.2
20260509055024 33 34 14.5 17.7 0.00 0.00 0.00 63 1013.2
20260509054524 34 25 12.9 14.5 0.00 0.00 0.00 60 1013.2
20260509054024 33 39 6.4 9.7 0.00 0.00 0.00 62 1013.5
20260509053524 32 299 1.6 1.6 0.00 0.00 0.00 65 1013.5
20260509053025 32 14 6.4 8.0 0.00 0.00 0.00 64 1013.5
20260509052524 32 206 1.6 1.6 0.00 0.00 0.00 66 1013.5
20260509052024 32 2 14.5 14.5 0.00 0.00 0.00 63 1013.5
20260509051525 33 311 6.4 8.0 0.00 0.00 0.00 63 1013.9
20260509051028 32 314 4.8 8.0 0.00 0.00 0.00 64 1013.9
20260509050530 32 13 11.3 12.9 0.00 0.00 0.00 64 1013.9
20260509050025 32 2 6.4 8.0 0.00 0.00 0.00 65 1013.9
20260509045525 32 2 9.7 11.3 0.00 0.00 0.00 64 1013.9
20260509045024 32 159 3.2 3.2 0.00 0.00 0.00 64 1013.9
20260509044525 33 143 4.8 8.0 0.00 0.00 0.00 63 1013.9
20260509044024 32 53 4.8 4.8 0.00 0.00 0.00 63 1014.2
20260509043524 32 77 4.8 8.0 0.00 0.00 0.00 62 1014.2
20260509043026 33 101 1.6 1.6 0.00 0.00 0.00 62 1013.9
20260509042524 33 120 8.0 8.0 0.00 0.00 0.00 61 1014.2
20260509042024 32 343 3.2 3.2 0.00 0.00 0.00 62 1014.2
20260509041525 32 4 6.4 8.0 0.00 0.00 0.00 62 1014.6
20260509041025 33 194 1.6 4.8 0.00 0.00 0.00 62 1014.6
20260509040524 32 319 4.8 4.8 0.00 0.00 0.00 63 1014.6
20260509040024 32 337 4.8 4.8 0.00 0.00 0.00 66 1014.6
20260509035524 31 0 3.2 4.8 0.00 0.00 0.00 66 1014.9
20260509035024 31 9 8.0 9.7 0.00 0.00 0.00 68 1014.9
20260509034525 31 9 8.0 11.3 0.00 0.00 0.00 67 1014.9
20260509034025 31 8 8.0 9.7 0.00 0.00 0.00 69 1014.9
20260509033525 31 14 4.8 4.8 0.00 0.00 0.00 69 1015.2
20260509033024 31 8 8.0 9.7 0.00 0.00 0.00 69 1015.2
20260509032524 31 347 6.4 8.0 0.00 0.00 0.00 67 1015.2
20260509032025 31 358 1.6 3.2 0.00 0.00 0.00 69 1015.2
20260509031524 31 220 0.0 0.0 0.00 0.00 0.00 69 1015.2
20260509031025 31 357 3.2 4.8 0.00 0.00 0.00 69 1015.2
20260509030524 31 7 4.8 4.8 0.00 0.00 0.00 69 1015.6
20260509030025 31 16 4.8 4.8 0.00 0.00 0.00 68 1015.6
20260509025524 31 19 4.8 8.0 0.00 0.00 0.00 67 1015.2
20260509025024 31 64 4.8 8.0 0.00 0.00 0.00 66 1015.2
20260509024525 31 94 4.8 4.8 0.00 0.00 0.00 67 1015.6
20260509024024 31 222 0.0 0.0 0.00 0.00 0.00 68 1015.6
20260509023524 31 213 0.0 0.0 0.00 0.00 0.00 69 1015.6
20260509023025 31 155 1.6 1.6 0.00 0.00 0.00 70 1015.2
20260509022524 31 3 4.8 8.0 0.00 0.00 0.00 71 1015.6
20260509022025 31 229 3.2 3.2 0.00 0.00 0.00 70 1015.6
20260509021525 31 348 1.6 1.6 0.00 0.00 0.00 70 1015.6
20260509021024 31 326 1.6 3.2 0.00 0.00 0.00 70 1015.6
20260509020524 31 311 0.0 0.0 0.00 0.00 0.00 70 1015.6
20260509020024 30 192 0.0 0.0 0.00 0.00 0.00 72 1015.6
20260509015525 30 186 0.0 0.0 0.00 0.00 0.00 73 1015.6
20260509015024 30 174 1.6 1.6 0.00 0.00 0.00 73 1015.6
20260509014524 30 216 1.6 1.6 0.00 0.00 0.00 73 1015.6
20260509014024 30 196 0.0 0.0 0.00 0.00 0.00 73 1015.6
20260509013524 30 65 4.8 4.8 0.00 0.00 0.00 74 1015.9
20260509013024 30 145 4.8 4.8 0.00 0.00 0.00 74 1015.9
20260509012524 30 114 4.8 4.8 0.00 0.00 0.00 74 1015.6
20260509012026 30 196 1.6 3.2 0.00 0.00 0.00 75 1015.6
20260509011524 30 206 1.6 1.6 0.00 0.00 0.00 75 1015.6
20260509011028 29 206 1.6 1.6 0.00 0.00 0.00 77 1015.6
20260509010525 29 215 4.8 4.8 0.00 0.00 0.00 77 1015.6
20260509010025 28 191 3.2 3.2 0.00 0.00 0.00 77 1015.6
20260509005524 28 208 1.6 3.2 0.00 0.00 0.00 78 1015.6
20260509005024 28 191 3.2 3.2 0.00 0.00 0.00 77 1015.6
20260509004524 28 205 1.6 1.6 0.00 0.00 0.00 78 1015.6
20260509004025 28 211 1.6 1.6 0.00 0.00 0.00 77 1015.6
20260509003524 28 187 0.0 0.0 0.00 0.00 0.00 79 1015.2
20260509003024 28 179 1.6 1.6 0.00 0.00 0.00 79 1015.6
20260509002524 28 207 0.0 1.6 0.00 0.00 0.00 79 1015.2
20260509002024 28 201 0.0 0.0 0.00 0.00 0.00 80 1015.2
20260509001524 28 207 0.0 0.0 0.00 0.00 0.00 81 1015.2
20260509001024 28 193 0.0 0.0 0.00 0.00 0.00 80 1015.2
20260509000524 27 191 0.0 0.0 0.00 0.00 0.00 81 1015.2
20260509000026 27 202 0.0 1.6 0.00 0.00 0.00 82 1014.9
20260508235524 27 192 0.0 1.6 0.00 0.00 0.00 82 1014.9
20260508235025 27 194 1.6 1.6 0.00 0.00 0.00 83 1014.9
20260508234525 27 191 0.0 0.0 0.00 0.00 0.00 83 1014.9
20260508234025 27 213 1.6 1.6 0.00 0.00 0.00 84 1014.6
20260508233524 27 199 3.2 3.2 0.00 0.00 0.00 84 1014.6
20260508233025 27 193 1.6 1.6 0.00 0.00 0.00 85 1014.6
20260508232524 27 214 3.2 3.2 0.00 0.00 0.00 85 1014.6
20260508232024 27 195 3.2 3.2 0.00 0.00 0.00 85 1014.6
20260508231525 27 198 1.6 1.6 0.00 0.00 0.00 85 1014.6
20260508231025 27 215 3.2 3.2 0.00 0.00 0.00 84 1014.2
20260508230526 27 208 3.2 3.2 0.00 0.00 0.00 84 1014.2
20260508230026 27 190 6.4 8.0 0.00 0.00 0.00 84 1014.2
20260508225524 27 204 1.6 3.2 0.00 0.00 0.00 84 1014.2
20260508225024 27 219 3.2 3.2 0.00 0.00 0.00 84 1014.2
20260508224524 27 223 6.4 8.0 0.00 0.00 0.00 84 1013.9
20260508224024 27 175 3.2 3.2 0.00 0.00 0.00 84 1014.2
20260508223525 27 206 3.2 3.2 0.00 0.00 0.00 84 1013.9
20260508223026 27 224 3.2 3.2 0.00 0.00 0.00 84 1013.9
20260508222524 27 207 3.2 3.2 0.00 0.00 0.00 84 1013.9
20260508222026 27 197 0.0 1.6 0.00 0.00 0.00 85 1013.9
20260508221524 27 198 0.0 0.0 0.00 0.00 0.00 85 1013.9
20260508221024 27 203 1.6 1.6 0.00 0.00 0.00 85 1013.5
20260508220524 27 201 0.0 0.0 0.00 0.00 0.00 85 1013.9
20260508220025 27 201 0.0 0.0 0.00 0.00 0.00 85 1013.9
20260508215524 27 203 0.0 0.0 0.00 0.00 0.00 84 1013.5
20260508215025 27 208 0.0 0.0 0.00 0.00 0.00 84 1013.9
20260508214524 27 213 0.0 1.6 0.00 0.00 0.00 83 1013.9
20260508214025 27 225 0.0 1.6 0.00 0.00 0.00 83 1013.5
20260508213524 27 217 0.0 0.0 0.00 0.00 0.00 83 1013.9